Escatawpa, MS

6:22 AM CST on December 06, 2016 (GMT -0600)
Lott International

Weather History for KPQL - October, 2012

Change the Weather History Date:

Friday, October 5, 2012

  Actual Average Record
Temperature  
Mean Temperature 74 °F -  
Max Temperature 88 °F 82 °F 92 °F (1963)
Min Temperature 63 °F 62 °F 42 °F (1987)
Cooling Degree Days 10    
Growing Degree Days 24 (Base 50)    
Moisture  
Dew Point 65 °F    
Average Humidity 82    
Maximum Humidity 100    
Minimum Humidity 46    
Precipitation  
Precipitation 0.00 in - - ()
Sea Level Pressure  
Sea Level Pressure 30.06 in    
Wind  
Wind Speed 2 mph (NE)    
Max Wind Speed 7 mph    
Max Gust Speed -    
Visibility 7 miles    
Events      
Averages and records for this station are not official NWS values.
T = Trace of Precipitation, MM = Missing Value Source: NWS Daily Summary

Daily Weather History Graph

Daily Weather History Graph

Search for Another Location

Airport or City:

Trip Planner

Search our weather history database for the weather conditions in past years. The results will help you decide how hot, cold, wet, or windy it might be!

Date:

Astronomy

Oct. 05, 2012 Rise Set
Actual Time 6:50 AM CDT 6:33 PM CDT
Civil Twilight 6:26 AM CDT 6:57 PM CDT
Nautical Twilight 5:58 AM CDT 7:25 PM CDT
Astronomical Twilight 5:30 AM CDT 7:53 PM CDT
Moon 10:16 PM CDT (10/5) 11:38 AM CDT (10/5)
Length of Visible Light 12h 31m
Length of Day
11h 43m
Waning Gibbous, 74% of the Moon is Illuminated
Oct 5
Waning Gibbous
Oct 8
Last Quarter
Oct 15
New
Oct 21
First Quarter
Oct 29
Full

Hourly Weather History & Observations

Time (CDT) Temp. Heat Index Dew Point Humidity Pressure Visibility Wind Dir Wind Speed Gust Speed Precip Events Conditions
12:53 AM 64.0 °F - 63.0 °F 96% 30.16 in 7.0 mi Calm Calm - N/A   Clear
1:53 AM 64.0 °F - 62.1 °F 93% 30.15 in 9.0 mi Calm Calm - N/A   Clear
3:53 AM 63.0 °F - 61.0 °F 93% 30.13 in 8.0 mi Calm Calm - N/A   Clear
4:53 AM 64.0 °F - 61.0 °F 90% 30.12 in 9.0 mi Calm Calm - N/A   Clear
5:53 AM 63.0 °F - 61.0 °F 93% 30.13 in 9.0 mi North 3.5 mph - N/A   Clear
6:53 AM 63.0 °F - 61.0 °F 93% 30.14 in 6.0 mi NNW 3.5 mph - N/A   Clear
7:53 AM 66.9 °F - 63.0 °F 87% 30.14 in 9.0 mi NNE 3.5 mph - N/A   Clear
8:53 AM 71.1 °F - 64.0 °F 78% 30.14 in 10.0 mi North 5.8 mph - N/A   Clear
9:53 AM 78.1 °F - 64.9 °F 64% 30.15 in 10.0 mi NE 6.9 mph - N/A   Clear
10:53 AM 82.0 °F 84.1 °F 66.0 °F 58% 30.13 in 10.0 mi Variable 5.8 mph - N/A   Clear
11:53 AM 82.9 °F 85.0 °F 66.0 °F 56% 30.12 in 10.0 mi NE 6.9 mph - N/A   Clear
12:53 PM 84.0 °F 85.4 °F 64.0 °F 51% 30.09 in 10.0 mi NE 4.6 mph - N/A   Clear
1:53 PM 84.9 °F 85.4 °F 62.1 °F 46% 30.06 in 10.0 mi Calm Calm - N/A   Clear
2:53 PM 86.0 °F 86.8 °F 63.0 °F 46% 30.03 in 10.0 mi Calm Calm - N/A   Partly Cloudy
3:53 PM 82.9 °F 85.8 °F 68.0 °F 60% 30.01 in 10.0 mi SE 5.8 mph - N/A   Mostly Cloudy
4:53 PM 82.9 °F 86.5 °F 69.1 °F 63% 30.00 in 10.0 mi South 5.8 mph - N/A   Clear
5:53 PM 81.0 °F 83.8 °F 68.0 °F 65% 30.01 in 10.0 mi South 3.5 mph - N/A   Clear
6:53 PM 75.9 °F - 70.0 °F 82% 30.01 in 10.0 mi Calm Calm - N/A   Clear
7:53 PM 71.1 °F - 69.1 °F 93% 30.02 in 10.0 mi Calm Calm - N/A   Clear
8:53 PM 69.1 °F - 68.0 °F 96% 30.02 in 5.0 mi Calm Calm - N/A   Clear
9:20 PM 69.8 °F - 68.0 °F 94% 30.02 in 1.8 mi Calm Calm - N/A   Clear
9:28 PM 69.8 °F - 68.0 °F 94% 30.02 in 2.5 mi Calm Calm - N/A   Clear
9:45 PM 69.8 °F - 66.2 °F 88% 30.02 in 4.0 mi Calm Calm - N/A   Clear
9:53 PM 69.1 °F - 68.0 °F 96% 30.03 in 6.0 mi Calm Calm - N/A   Clear
10:00 PM 68.0 °F - 66.2 °F 94% 30.02 in 1.5 mi Calm Calm - N/A   Clear
10:09 PM 69.8 °F - 66.2 °F 88% 30.02 in 0.8 mi Calm Calm - N/A   Clear
10:23 PM 68.0 °F - 66.2 °F 94% 30.03 in 1.5 mi Calm Calm - N/A   Clear
10:48 PM 68.0 °F - 66.2 °F 94% 30.03 in 4.0 mi Calm Calm - N/A   Clear
10:53 PM 68.0 °F - 66.9 °F 96% 30.03 in 8.0 mi Calm Calm - N/A   Clear
11:04 PM 66.2 °F - 64.4 °F 94% 30.03 in 1.8 mi Calm Calm - N/A   Clear
11:10 PM 66.2 °F - 64.4 °F 94% 30.03 in 3.0 mi Calm Calm - N/A   Clear
11:53 PM 66.9 °F - 66.9 °F 100% 30.04 in 6.0 mi Calm Calm - N/A   Clear